Flag for U.S.A. Weather past 2 weeks in Youngstown, Ohio, U.S.A.

Now
64 °F

Light rain. Mostly cloudy.


Feels Like: 64 °F
Forecast: 62 / 75 °F
Wind: 5 mph from East

Location: Youngstown-Warren Regional Airport

Current Time: Jun 29, 2015 at 8:19:58 PM

Latest Report: Jun 29, 2015 at 7:51 PM


Visibility: 10 mi

Pressure: 29.88 "Hg

Humidity: 90%

Dew point: 61 °F

Location of YoungstownLocation

Historic Weather in Youngstown — Graph

°F

Youngstown temperature yesterday

Maximum temperature yesterday: 63 °F (at 7:51 PM)
Minimum temperature yesterday: 56 °F (at 10:51 PM)
Average temperature yesterday: 60 °F

Past Weeks' High & Low Weather Summary

 TemperatureHumidityPressure
High84 °F (Jun 22, 3:51 PM)100% (Jun 21, 1:51 AM)30.16 "Hg (Jun 21, 1:51 AM)
Low52 °F (Jun 29, 4:51 AM)33% (Jun 24, 4:51 PM)29.56 "Hg (Jun 28, 4:51 AM)
Average68 °F82%29.95 "Hg
* Reported Jun 14 6:51 PM — Jun 29 6:51 PM, Youngstown, Weather by CustomWeather, © 2015

Note: Actual official high and low records may vary slightly from our data, if they occured in-between our weather recording intervals... More about our weather records

Advertising

Youngstown weather history for previous 24 hours

 ConditionsComfort  
Time TempWeatherWind HumidityBarometerVisibility
6:51 PM
Mon, Jun 29
65 °FLight rain. More clouds than sun.5 mph87%29.89 "Hg10 mi
5:51 PM67 °FLight rain. More clouds than sun.No wind79%29.90 "Hg10 mi
4:51 PM69 °FMore clouds than sun.3 mph66%29.90 "Hg10 mi
3:51 PM68 °FLight rain. Overcast.3 mph63%29.92 "Hg9 mi
2:51 PM69 °FLight rain. More clouds than sun.5 mph70%29.93 "Hg10 mi
1:51 PM70 °FCloudy.7 mph66%29.94 "Hg10 mi
12:51 PM70 °FMostly cloudy.6 mph64%29.94 "Hg10 mi
11:51 AM71 °FMore clouds than sun.7 mph61%29.93 "Hg10 mi
10:51 AM71 °FOvercast.8 mph61%29.94 "Hg10 mi
9:51 AM69 °FPartly sunny.8 mph68%29.95 "Hg10 mi
8:51 AM64 °FPartly sunny.7 mph78%29.94 "Hg10 mi
7:51 AM59 °FBroken clouds.5 mph87%29.94 "Hg10 mi
6:51 AM54 °FPassing clouds.No wind97%29.92 "Hg9 mi
5:51 AM54 °FPassing clouds.No wind93%29.91 "Hg10 mi
4:51 AM52 °FPartly cloudy.3 mph93%29.90 "Hg9 mi
3:51 AM54 °FPassing clouds.No wind93%29.92 "Hg10 mi
2:51 AM55 °FPassing clouds.No wind93%29.92 "Hg10 mi
1:51 AM54 °FPartly cloudy.No wind93%29.93 "Hg10 mi
12:51 AM56 °FPassing clouds.3 mph90%29.93 "Hg10 mi
11:51 PM
Sun, Jun 28
56 °FPassing clouds.7 mph87%29.92 "Hg10 mi
10:51 PM56 °FPassing clouds.6 mph87%29.92 "Hg10 mi
9:51 PM57 °FScattered clouds.6 mph87%29.90 "Hg10 mi
Weather by CustomWeather, © 2015

See weather overviewHow to use our weather pages